CSN485 SUMU-SCEL

Flight info

Callsign CSN485
Flight time N/A
Altitude 36000
Route DAGUS DCT UGIMI UL405 TOSOR UT687 UMKAL UMKAL7C
Aircraft B77W/H-SDE1E2E3FGHIJ2J3J4J5M1RWXY/LB1D1

Departure

Time 2026-04-26 09:15
Airport Carrasco General Cesáreo L. Berisso International Airport (SUMU)

Arrival

Time N/A
Airport Comodoro Arturo Merino Benítez International Airport (SCEL)
Time Latitude Longitude Altitude Speed Heading
2026-04-26 09:04 -34.83579 -56.01728 85 ft 0 kts 143°
2026-04-26 09:09 -34.83572 -56.01734 85 ft 2 kts 142°
2026-04-26 09:10 -34.83560 -56.01745 85 ft 2 kts 143°
2026-04-26 09:10 -34.83548 -56.01756 85 ft 2 kts 143°
2026-04-26 09:10 -34.83536 -56.01767 86 ft 2 kts 141°
2026-04-26 09:10 -34.83527 -56.01781 86 ft 2 kts 111°
2026-04-26 09:11 -34.83524 -56.01798 86 ft 2 kts 87°
2026-04-26 09:11 -34.83527 -56.01816 85 ft 2 kts 63°
2026-04-26 09:11 -34.83535 -56.01830 85 ft 2 kts 49°
2026-04-26 09:11 -34.83544 -56.01844 85 ft 2 kts 52°
2026-04-26 09:12 -34.83548 -56.01849 84 ft 0 kts 53°
2026-04-26 09:13 -34.83539 -56.01835 85 ft 4 kts 53°
2026-04-26 09:13 -34.83508 -56.01783 86 ft 10 kts 51°
2026-04-26 09:14 -34.83432 -56.01781 87 ft 14 kts 327°
2026-04-26 09:14 -34.83332 -56.01868 88 ft 20 kts 324°
2026-04-26 09:14 -34.83238 -56.01951 87 ft 11 kts 323°
2026-04-26 09:14 -34.83202 -56.02022 86 ft 10 kts 246°
2026-04-26 09:15 -34.83282 -56.02170 84 ft 48 kts 233°
2026-04-26 09:15 -34.83638 -56.02753 76 ft 120 kts 233°
2026-04-26 09:15 -34.84254 -56.03764 171 ft 169 kts 234°
2026-04-26 09:15 -34.84956 -56.04905 843 ft 174 kts 235°
2026-04-26 09:16 -34.85681 -56.06090 1552 ft 180 kts 236°
2026-04-26 09:16 -34.86440 -56.07373 1952 ft 195 kts 244°
2026-04-26 09:16 -34.86844 -56.09004 2302 ft 212 kts 262°
2026-04-26 09:16 -34.87118 -56.10845 2809 ft 228 kts 262°
2026-04-26 09:17 -34.87403 -56.12793 3337 ft 243 kts 262°
2026-04-26 09:17 -34.87703 -56.14840 4115 ft 248 kts 262°
2026-04-26 09:17 -34.88003 -56.16884 4911 ft 250 kts 262°
2026-04-26 09:17 -34.88308 -56.18972 5647 ft 255 kts 262°
2026-04-26 09:18 -34.88619 -56.21095 6408 ft 257 kts 263°
2026-04-26 09:18 -34.88931 -56.23229 7207 ft 258 kts 262°
2026-04-26 09:18 -34.89245 -56.25375 7963 ft 260 kts 263°
2026-04-26 09:18 -34.89557 -56.27517 8717 ft 261 kts 262°
2026-04-26 09:19 -34.89877 -56.29710 9469 ft 263 kts 263°
2026-04-26 09:19 -34.90193 -56.31885 10158 ft 266 kts 262°
2026-04-26 09:19 -34.90520 -56.34145 10549 ft 281 kts 262°
2026-04-26 09:19 -34.90866 -56.36548 10918 ft 297 kts 262°
2026-04-26 09:20 -34.91232 -56.39087 11312 ft 312 kts 262°
2026-04-26 09:20 -34.91615 -56.41742 11730 ft 327 kts 262°
2026-04-26 09:20 -34.92016 -56.44525 12183 ft 342 kts 262°
2026-04-26 09:20 -34.92437 -56.47451 12674 ft 355 kts 262°
2026-04-26 09:21 -34.92865 -56.50425 13486 ft 360 kts 262°
2026-04-26 09:21 -34.93294 -56.53404 14417 ft 363 kts 262°
2026-04-26 09:21 -34.93725 -56.56404 15426 ft 364 kts 262°
2026-04-26 09:21 -34.94161 -56.59434 16527 ft 363 kts 262°
2026-04-26 09:22 -34.94592 -56.62444 17542 ft 364 kts 262°
2026-04-26 09:22 -34.95019 -56.65434 18477 ft 366 kts 263°
2026-04-26 09:22 -34.95456 -56.68494 19478 ft 367 kts 263°
2026-04-26 09:22 -34.95889 -56.71533 20376 ft 369 kts 263°
2026-04-26 09:23 -34.96331 -56.74638 21180 ft 374 kts 263°
2026-04-26 09:23 -34.96765 -56.77703 21967 ft 377 kts 263°
2026-04-26 09:23 -34.97211 -56.80848 22805 ft 380 kts 262°
2026-04-26 09:23 -34.97657 -56.84000 23629 ft 381 kts 263°
2026-04-26 09:24 -34.98093 -56.87183 24367 ft 383 kts 264°
2026-04-26 09:24 -34.98266 -56.90435 25034 ft 386 kts 270°
2026-04-26 09:24 -34.98262 -56.93681 25635 ft 390 kts 271°
2026-04-26 09:24 -34.98248 -56.96988 26334 ft 392 kts 271°
2026-04-26 09:25 -34.98234 -57.00309 27081 ft 393 kts 271°
2026-04-26 09:25 -34.98219 -57.03640 27745 ft 396 kts 272°
2026-04-26 09:25 -34.98202 -57.07005 28306 ft 401 kts 272°
2026-04-26 09:25 -34.98185 -57.10420 28915 ft 404 kts 272°
2026-04-26 09:26 -34.98170 -57.13818 29634 ft 405 kts 272°
2026-04-26 09:26 -34.98154 -57.17216 30531 ft 401 kts 272°
2026-04-26 09:26 -34.98138 -57.20556 31386 ft 394 kts 272°
2026-04-26 09:26 -34.98121 -57.23866 32110 ft 389 kts 272°
2026-04-26 09:27 -34.98103 -57.27135 32667 ft 387 kts 272°
2026-04-26 09:27 -34.98083 -57.30421 33218 ft 386 kts 272°
2026-04-26 09:27 -34.98064 -57.33681 33667 ft 385 kts 272°
2026-04-26 09:27 -34.98043 -57.36884 34180 ft 383 kts 272°
2026-04-26 09:28 -34.98022 -57.40107 34693 ft 382 kts 272°
2026-04-26 09:28 -34.98000 -57.43354 35221 ft 380 kts 272°
2026-04-26 09:28 -34.97977 -57.46543 35673 ft 379 kts 272°
2026-04-26 09:28 -34.97953 -57.49725 35825 ft 380 kts 272°
2026-04-26 09:29 -34.97928 -57.52947 35844 ft 379 kts 272°
2026-04-26 09:29 -34.97876 -57.59331 35848 ft 376 kts 272°
2026-04-26 09:30 -34.97821 -57.65692 35852 ft 377 kts 272°
2026-04-26 09:30 -34.97763 -57.72101 35871 ft 377 kts 272°
2026-04-26 09:31 -34.97701 -57.78516 35872 ft 377 kts 272°
2026-04-26 09:31 -34.97636 -57.84862 35870 ft 377 kts 272°
2026-04-26 09:32 -34.97179 -57.91223 35868 ft 378 kts 281°
2026-04-26 09:32 -34.95799 -57.97398 35870 ft 377 kts 284°
2026-04-26 09:33 -34.94351 -58.03534 35865 ft 377 kts 284°
2026-04-26 09:33 -34.92900 -58.09662 35864 ft 378 kts 284°
2026-04-26 09:34 -34.91436 -58.15832 35865 ft 378 kts 284°
2026-04-26 09:34 -34.89983 -58.21936 35865 ft 376 kts 284°
2026-04-26 09:35 -34.88519 -58.28073 35865 ft 378 kts 284°
2026-04-26 09:35 -34.87052 -58.34204 35865 ft 377 kts 284°
2026-04-26 09:36 -34.85582 -58.40339 35866 ft 378 kts 284°
2026-04-26 09:36 -34.84107 -58.46473 35862 ft 376 kts 284°
2026-04-26 09:37 -34.82644 -58.52609 35862 ft 377 kts 282°
2026-04-26 09:37 -34.82156 -58.55743 36005 ft 377 kts 277°
2026-04-26 09:37 -34.81815 -58.58883 35901 ft 382 kts 277°
2026-04-26 09:38 -34.81132 -58.65245 35867 ft 376 kts 277°
2026-04-26 09:38 -34.80449 -58.71540 35886 ft 378 kts 277°